User: anonymous
Location: Ostrava
(49.8330°N, 18.2830°E)
Time: 01:57:37
(UTC+02:00)
Language:

Iridium 7 - Orbit

View from above orbital plane
View from above orbital plane
View from above satellite
View from above satellite

Ground track
Ground track

The orbit data is extracted from the following two-line orbital elements,

1 24793U 97020B   14294.24977978  .00000871  00000-0  30395-3 0   211
2 24793 086.3997 004.3592 0002256 109.5377 308.2172 14.34220510914176
Epoch (UTC): 21 October 2014 05:59:40
Eccentricity: 0.0002256
inclination: 86.3997°
perigee height: 776 km
apogee height: 779 km
right ascension of ascending node: 4.3592°
argument of perigee: 109.5377°
revolutions per day: 14.34220510
mean anomaly at epoch: 308.2172°
orbit number at epoch: 91417

The dashed part of the orbit path shows where the satellite is in the earth's shadow,  

DLR